Time,TemperatureF,DewpointF,PressureIn,WindDirection,WindDirectionDegrees,WindSpeedMPH,WindSpeedGustMPH,Humidity,HourlyPrecipIn,Conditions,Clouds,dailyrainin,SoftwareType,DateUTC
2013-03-23 00:00:00,29.1,11.3,30.04,NE,45,0.0,0.0,47,0.00,,,0.00,WUHU21623XXSP,2013-03-23 05:00:00,
2013-03-23 00:05:00,29.1,11.3,30.04,ENE,67,0.0,0.0,47,0.00,,,0.00,WUHU21623XXSP,2013-03-23 05:05:00,
2013-03-23 00:10:00,29.3,11.5,30.03,ENE,67,0.0,0.0,47,0.00,,,0.00,WUHU21623XXSP,2013-03-23 05:10:00,
2013-03-23 00:15:00,29.3,11.5,30.04,East,90,0.0,0.0,47,0.00,,,0.00,WUHU21623XXSP,2013-03-23 05:15:00,
2013-03-23 00:20:00,29.3,11.5,30.04,ENE,67,0.0,0.4,47,0.00,,,0.00,WUHU21623XXSP,2013-03-23 05:20:00,
2013-03-23 00:25:00,29.3,11.5,30.04,ENE,67,0.0,0.4,47,0.00,,,0.00,WUHU21623XXSP,2013-03-23 05:25:00,
2013-03-23 00:30:00,29.3,11.5,30.04,ENE,67,0.7,0.7,47,0.00,,,0.00,WUHU21623XXSP,2013-03-23 05:30:00,
2013-03-23 00:35:00,29.3,11.0,30.04,ENE,67,0.0,0.7,46,0.00,,,0.00,WUHU21623XXSP,2013-03-23 05:35:00,
2013-03-23 00:40:00,29.3,11.0,30.04,NNE,22,0.0,0.2,46,0.00,,,0.00,WUHU21623XXSP,2013-03-23 05:40:00,
2013-03-23 00:45:00,29.3,11.0,30.04,NNE,22,0.9,0.9,46,0.00,,,0.00,WUHU21623XXSP,2013-03-23 05:45:00,
2013-03-23 00:50:00,29.1,10.8,30.04,NNE,22,0.0,1.3,46,0.00,,,0.00,WUHU21623XXSP,2013-03-23 05:50:00,
2013-03-23 00:55:00,28.9,11.2,30.04,NNE,22,0.0,1.3,47,0.00,,,0.00,WUHU21623XXSP,2013-03-23 05:55:00,
2013-03-23 01:00:00,29.1,11.2,30.04,NNE,22,0.0,0.0,47,0.00,,,0.00,WUHU21623XXSP,2013-03-23 06:00:00,
2013-03-23 01:05:00,29.1,11.3,30.04,NNE,22,0.0,0.0,47,0.00,,,0.00,WUHU21623XXSP,2013-03-23 06:05:00,
2013-03-23 01:10:00,28.8,11.0,30.03,NE,45,0.0,0.0,47,0.00,,,0.00,WUHU21623XXSP,2013-03-23 06:10:00,
2013-03-23 01:15:00,28.8,11.5,30.04,NNE,22,0.7,0.7,48,0.00,,,0.00,WUHU21623XXSP,2013-03-23 06:15:00,
2013-03-23 01:20:00,28.6,11.4,30.04,NNE,22,1.3,1.3,48,0.00,,,0.00,WUHU21623XXSP,2013-03-23 06:20:00,
2013-03-23 01:25:00,28.6,11.4,30.04,NNE,22,0.7,1.3,48,0.00,,,0.00,WUHU21623XXSP,2013-03-23 06:25:00,
2013-03-23 01:30:00,28.6,11.4,30.04,NE,45,2.5,2.5,48,0.00,,,0.00,WUHU21623XXSP,2013-03-23 06:30:00,
2013-03-23 01:35:00,28.4,11.2,30.05,ENE,67,0.0,2.5,48,0.00,,,0.00,WUHU21623XXSP,2013-03-23 06:35:00,
2013-03-23 01:40:00,28.2,11.0,30.05,ENE,67,0.0,0.9,48,0.00,,,0.00,WUHU21623XXSP,2013-03-23 06:40:00,
2013-03-23 01:45:00,28.0,10.8,30.04,North,0,0.0,0.0,48,0.00,,,0.00,WUHU21623XXSP,2013-03-23 06:45:00,
2013-03-23 01:50:00,28.0,11.3,30.05,North,0,0.0,0.0,49,0.00,,,0.00,WUHU21623XXSP,2013-03-23 06:50:00,
2013-03-23 01:55:00,28.0,11.3,30.04,North,0,0.0,0.0,49,0.00,,,0.00,WUHU21623XXSP,2013-03-23 06:55:00,
2013-03-23 02:00:00,27.9,11.2,30.04,North,0,0.0,0.0,49,0.00,,,0.00,WUHU21623XXSP,2013-03-23 07:00:00,
2013-03-23 02:05:00,27.7,11.0,30.05,North,0,0.0,0.0,49,0.00,,,0.00,WUHU21623XXSP,2013-03-23 07:05:00,
2013-03-23 02:10:00,27.7,11.0,30.05,North,0,0.0,0.0,49,0.00,,,0.00,WUHU21623XXSP,2013-03-23 07:10:00,
2013-03-23 02:15:00,27.5,10.8,30.04,North,0,0.0,0.0,49,0.00,,,0.00,WUHU21623XXSP,2013-03-23 07:15:00,
2013-03-23 02:20:00,27.5,10.8,30.04,North,0,0.0,0.0,49,0.00,,,0.00,WUHU21623XXSP,2013-03-23 07:20:00,
2013-03-23 02:25:00,27.5,10.8,30.05,North,0,0.0,0.0,49,0.00,,,0.00,WUHU21623XXSP,2013-03-23 07:25:00,
2013-03-23 02:30:00,27.5,10.8,30.05,North,0,0.0,0.0,49,0.00,,,0.00,WUHU21623XXSP,2013-03-23 07:30:00,
2013-03-23 02:35:00,27.5,10.8,30.05,North,0,0.0,0.0,49,0.00,,,0.00,WUHU21623XXSP,2013-03-23 07:35:00,
2013-03-23 02:40:00,27.5,11.3,30.05,North,0,0.0,0.0,50,0.00,,,0.00,WUHU21623XXSP,2013-03-23 07:40:00,
2013-03-23 02:45:00,27.3,11.1,30.05,North,0,0.0,0.0,50,0.00,,,0.00,WUHU21623XXSP,2013-03-23 07:45:00,
2013-03-23 02:50:00,27.3,11.1,30.04,North,0,0.0,0.0,50,0.00,,,0.00,WUHU21623XXSP,2013-03-23 07:50:00,
2013-03-23 02:55:00,27.3,11.1,30.05,North,0,0.0,0.0,50,0.00,,,0.00,WUHU21623XXSP,2013-03-23 07:55:00,
2013-03-23 03:00:00,27.3,11.1,30.04,North,0,0.0,0.0,50,0.00,,,0.00,WUHU21623XXSP,2013-03-23 08:00:00,
2013-03-23 03:05:00,27.1,10.9,30.04,North,0,0.0,0.0,50,0.00,,,0.00,WUHU21623XXSP,2013-03-23 08:05:00,
2013-03-23 03:10:00,27.0,10.8,30.04,North,0,0.0,0.0,50,0.00,,,0.00,WUHU21623XXSP,2013-03-23 08:10:00,
2013-03-23 03:15:00,27.0,10.8,30.04,North,0,0.0,0.4,50,0.00,,,0.00,WUHU21623XXSP,2013-03-23 08:15:00,
2013-03-23 03:20:00,26.8,10.6,30.03,North,0,0.0,0.4,50,0.00,,,0.00,WUHU21623XXSP,2013-03-23 08:20:00,
2013-03-23 03:25:00,26.8,10.6,30.03,NNE,22,0.7,0.7,50,0.00,,,0.00,WUHU21623XXSP,2013-03-23 08:25:00,
2013-03-23 03:30:00,26.8,10.6,30.03,NNE,22,0.9,0.9,50,0.00,,,0.00,WUHU21623XXSP,2013-03-23 08:30:00,
2013-03-23 03:35:00,26.4,10.2,30.03,NE,45,1.1,1.1,50,0.00,,,0.00,WUHU21623XXSP,2013-03-23 08:35:00,
2013-03-23 03:40:00,26.2,10.1,30.03,NNE,22,0.2,1.1,50,0.00,,,0.00,WUHU21623XXSP,2013-03-23 08:40:00,
2013-03-23 03:45:00,26.1,9.9,30.03,NNE,22,0.0,1.1,50,0.00,,,0.00,WUHU21623XXSP,2013-03-23 08:45:00,
2013-03-23 03:50:00,26.2,10.5,30.03,NNE,22,0.0,0.7,51,0.00,,,0.00,WUHU21623XXSP,2013-03-23 08:50:00,
2013-03-23 03:55:00,26.1,10.3,30.03,NNE,22,0.4,0.7,51,0.00,,,0.00,WUHU21623XXSP,2013-03-23 08:55:00,
2013-03-23 04:00:00,26.1,10.3,30.03,NNE,22,0.0,0.7,51,0.00,,,0.00,WUHU21623XXSP,2013-03-23 09:00:00,
2013-03-23 04:05:00,25.9,10.2,30.04,North,0,0.0,0.4,51,0.00,,,0.00,WUHU21623XXSP,2013-03-23 09:05:00,
2013-03-23 04:10:00,25.7,10.0,30.04,North,0,0.7,0.7,51,0.00,,,0.00,WUHU21623XXSP,2013-03-23 09:10:00,
2013-03-23 04:15:00,25.7,10.0,30.04,NNE,22,0.0,0.7,51,0.00,,,0.00,WUHU21623XXSP,2013-03-23 09:15:00,
2013-03-23 04:20:00,25.7,10.0,30.03,NNE,22,0.0,0.0,51,0.00,,,0.00,WUHU21623XXSP,2013-03-23 09:20:00,
2013-03-23 04:25:00,25.7,10.0,30.04,NE,45,0.0,0.0,51,0.00,,,0.00,WUHU21623XXSP,2013-03-23 09:25:00,
2013-03-23 04:30:00,25.5,9.8,30.03,NE,45,0.0,0.0,51,0.00,,,0.00,WUHU21623XXSP,2013-03-23 09:30:00,
2013-03-23 04:35:00,25.5,9.8,30.03,NE,45,0.0,0.0,51,0.00,,,0.00,WUHU21623XXSP,2013-03-23 09:35:00,
2013-03-23 04:40:00,25.3,9.7,30.04,NNE,22,0.0,0.0,51,0.00,,,0.00,WUHU21623XXSP,2013-03-23 09:40:00,
2013-03-23 04:45:00,25.3,9.7,30.03,NE,45,0.0,0.0,51,0.00,,,0.00,WUHU21623XXSP,2013-03-23 09:45:00,
2013-03-23 04:50:00,25.3,9.7,30.03,NE,45,0.0,0.0,51,0.00,,,0.00,WUHU21623XXSP,2013-03-23 09:50:00,
2013-03-23 04:55:00,25.2,9.5,30.03,NE,45,0.0,0.0,51,0.00,,,0.00,WUHU21623XXSP,2013-03-23 09:55:00,
2013-03-23 05:00:00,25.2,9.5,30.03,NE,45,0.0,0.0,51,0.00,,,0.00,WUHU21623XXSP,2013-03-23 10:00:00,
2013-03-23 05:05:00,25.2,9.5,30.04,NE,45,0.0,0.0,51,0.00,,,0.00,WUHU21623XXSP,2013-03-23 10:05:00,
2013-03-23 05:10:00,25.2,9.5,30.04,NE,45,0.0,0.0,51,0.00,,,0.00,WUHU21623XXSP,2013-03-23 10:10:00,
2013-03-23 05:15:00,25.0,9.4,30.03,NE,45,0.0,0.0,51,0.00,,,0.00,WUHU21623XXSP,2013-03-23 10:15:00,
2013-03-23 05:20:00,25.0,9.4,30.04,NE,45,0.0,0.0,51,0.00,,,0.00,WUHU21623XXSP,2013-03-23 10:20:00,
2013-03-23 05:25:00,25.0,9.4,30.04,NE,45,0.0,0.0,51,0.00,,,0.00,WUHU21623XXSP,2013-03-23 10:25:00,
2013-03-23 05:30:00,24.8,9.2,30.04,NE,45,0.0,0.0,51,0.00,,,0.00,WUHU21623XXSP,2013-03-23 10:30:00,
2013-03-23 05:35:00,24.6,9.0,30.05,NE,45,0.0,0.0,51,0.00,,,0.00,WUHU21623XXSP,2013-03-23 10:35:00,
2013-03-23 05:40:00,24.4,9.3,30.05,NE,45,0.0,0.0,52,0.00,,,0.00,WUHU21623XXSP,2013-03-23 10:40:00,
2013-03-23 05:45:00,24.4,9.3,30.05,NE,45,0.0,0.0,52,0.00,,,0.00,WUHU21623XXSP,2013-03-23 10:45:00,
2013-03-23 05:50:00,24.3,9.1,30.05,NE,45,0.0,0.0,52,0.00,,,0.00,WUHU21623XXSP,2013-03-23 10:50:00,
2013-03-23 05:55:00,24.3,9.1,30.05,NE,45,0.0,0.0,52,0.00,,,0.00,WUHU21623XXSP,2013-03-23 10:55:00,
2013-03-23 06:00:00,24.3,9.1,30.05,NE,45,0.0,0.0,52,0.00,,,0.00,WUHU21623XXSP,2013-03-23 11:00:00,
2013-03-23 06:05:00,24.1,8.9,30.05,NE,45,0.0,0.0,52,0.00,,,0.00,WUHU21623XXSP,2013-03-23 11:05:00,
2013-03-23 06:10:00,24.1,8.9,30.05,NE,45,0.0,0.0,52,0.00,,,0.00,WUHU21623XXSP,2013-03-23 11:10:00,
2013-03-23 06:15:00,23.9,8.8,30.05,NE,45,0.0,0.0,52,0.00,,,0.00,WUHU21623XXSP,2013-03-23 11:15:00,
2013-03-23 06:20:00,23.9,8.6,30.05,NNE,22,0.0,0.0,52,0.00,,,0.00,WUHU21623XXSP,2013-03-23 11:20:00,
2013-03-23 06:25:00,23.7,8.6,30.06,North,0,0.0,0.0,52,0.00,,,0.00,WUHU21623XXSP,2013-03-23 11:25:00,
2013-03-23 06:30:00,23.7,8.6,30.06,North,0,0.0,0.0,52,0.00,,,0.00,WUHU21623XXSP,2013-03-23 11:30:00,
2013-03-23 06:35:00,23.7,8.6,30.06,North,0,0.0,0.0,52,0.00,,,0.00,WUHU21623XXSP,2013-03-23 11:35:00,
2013-03-23 06:40:00,23.5,8.4,30.06,North,0,0.0,0.0,52,0.00,,,0.00,WUHU21623XXSP,2013-03-23 11:40:00,
2013-03-23 06:45:00,23.4,8.3,30.06,North,0,0.0,0.0,52,0.00,,,0.00,WUHU21623XXSP,2013-03-23 11:45:00,
2013-03-23 06:50:00,23.4,8.3,30.06,North,0,0.0,0.0,52,0.00,,,0.00,WUHU21623XXSP,2013-03-23 11:50:00,
2013-03-23 06:55:00,23.4,8.3,30.06,North,0,0.0,0.0,52,0.00,,,0.00,WUHU21623XXSP,2013-03-23 11:55:00,
2013-03-23 07:00:00,23.2,8.1,30.06,North,0,0.0,0.0,52,0.00,,,0.00,WUHU21623XXSP,2013-03-23 12:00:00,
2013-03-23 07:05:00,23.2,8.1,30.06,North,0,0.0,0.0,52,0.00,,,0.00,WUHU21623XXSP,2013-03-23 12:05:00,
2013-03-23 07:10:00,23.2,8.5,30.07,North,0,0.0,0.0,53,0.00,,,0.00,WUHU21623XXSP,2013-03-23 12:10:00,
2013-03-23 07:16:00,23.2,8.5,30.07,North,0,0.0,0.0,53,0.00,,,0.00,WUHU21623XXSP,2013-03-23 12:16:00,
2013-03-23 07:21:00,23.2,8.5,30.07,North,0,0.0,0.0,53,0.00,,,0.00,WUHU21623XXSP,2013-03-23 12:21:00,
2013-03-23 07:26:00,23.4,8.7,30.08,NNW,337,0.0,0.0,53,0.00,,,0.00,WUHU21623XXSP,2013-03-23 12:26:00,
2013-03-23 07:31:00,23.4,8.7,30.08,NW,315,0.0,0.0,53,0.00,,,0.00,WUHU21623XXSP,2013-03-23 12:31:00,
2013-03-23 07:36:00,23.7,9.0,30.08,NW,315,0.0,0.0,53,0.00,,,0.00,WUHU21623XXSP,2013-03-23 12:36:00,
2013-03-23 07:41:00,25.2,11.2,30.08,NW,315,0.0,0.0,55,0.00,,,0.00,WUHU21623XXSP,2013-03-23 12:41:00,
2013-03-23 07:46:00,27.5,13.8,30.08,NNE,22,0.0,0.0,56,0.00,,,0.00,WUHU21623XXSP,2013-03-23 12:46:00,
2013-03-23 07:51:00,28.2,14.1,30.08,North,0,0.0,0.0,55,0.00,,,0.00,WUHU21623XXSP,2013-03-23 12:51:00,
2013-03-23 07:56:00,28.4,14.3,30.08,North,0,0.0,0.0,55,0.00,,,0.00,WUHU21623XXSP,2013-03-23 12:56:00,
2013-03-23 08:01:00,28.6,13.6,30.08,NE,45,0.0,0.7,53,0.00,,,0.00,WUHU21623XXSP,2013-03-23 13:01:00,
2013-03-23 08:06:00,28.4,13.4,30.08,North,0,0.7,0.7,53,0.00,,,0.00,WUHU21623XXSP,2013-03-23 13:06:00,
2013-03-23 08:11:00,28.6,13.6,30.08,NNE,22,0.0,0.7,53,0.00,,,0.00,WUHU21623XXSP,2013-03-23 13:11:00,
2013-03-23 08:16:00,28.9,13.9,30.08,NNE,22,0.0,0.4,53,0.00,,,0.00,WUHU21623XXSP,2013-03-23 13:16:00,
2013-03-23 08:21:00,29.3,14.3,30.08,NNE,22,1.1,1.1,53,0.00,,,0.00,WUHU21623XXSP,2013-03-23 13:21:00,
2013-03-23 08:26:00,29.8,14.7,30.08,NNE,22,1.8,1.8,53,0.00,,,0.00,WUHU21623XXSP,2013-03-23 13:26:00,
2013-03-23 08:31:00,30.6,15.0,30.09,North,0,1.3,1.8,52,0.00,,,0.00,WUHU21623XXSP,2013-03-23 13:31:00,
2013-03-23 08:36:00,30.9,15.3,30.09,NNE,22,0.0,1.3,52,0.00,,,0.00,WUHU21623XXSP,2013-03-23 13:36:00,
2013-03-23 08:41:00,31.8,15.7,30.09,NE,45,1.1,1.8,51,0.00,,,0.00,WUHU21623XXSP,2013-03-23 13:41:00,
2013-03-23 08:46:00,32.4,16.2,30.09,NNE,22,2.2,2.2,51,0.00,,,0.00,WUHU21623XXSP,2013-03-23 13:46:00,
2013-03-23 08:51:00,32.7,16.1,30.09,NNE,22,2.2,2.5,50,0.00,,,0.00,WUHU21623XXSP,2013-03-23 13:51:00,
2013-03-23 08:56:00,33.1,15.9,30.08,NE,45,0.0,2.5,49,0.00,,,0.00,WUHU21623XXSP,2013-03-23 13:56:00,
2013-03-23 09:01:00,33.4,15.7,30.08,ENE,67,0.0,2.5,48,0.00,,,0.00,WUHU21623XXSP,2013-03-23 14:01:00,
2013-03-23 09:07:00,34.0,15.7,30.08,NE,45,0.0,0.0,47,0.00,,,0.00,WUHU21623XXSP,2013-03-23 14:07:00,
2013-03-23 09:12:00,34.5,15.7,30.09,NE,45,0.7,1.6,46,0.00,,,0.00,WUHU21623XXSP,2013-03-23 14:12:00,
2013-03-23 09:17:00,34.7,15.4,30.08,ENE,67,2.0,2.0,45,0.00,,,0.00,WUHU21623XXSP,2013-03-23 14:17:00,
2013-03-23 09:22:00,35.2,15.9,30.08,NE,45,0.9,2.0,45,0.00,,,0.00,WUHU21623XXSP,2013-03-23 14:22:00,
2013-03-23 09:27:00,36.0,16.6,30.09,East,90,0.0,2.5,45,0.00,,,0.00,WUHU21623XXSP,2013-03-23 14:27:00,
2013-03-23 09:32:00,36.3,16.9,30.09,North,0,1.1,2.5,45,0.00,,,0.00,WUHU21623XXSP,2013-03-23 14:32:00,
2013-03-23 09:37:00,37.2,17.2,30.09,East,90,0.9,3.4,44,0.00,,,0.00,WUHU21623XXSP,2013-03-23 14:37:00,
2013-03-23 09:42:00,37.8,17.1,30.09,NE,45,0.0,3.4,43,0.00,,,0.00,WUHU21623XXSP,2013-03-23 14:42:00,
2013-03-23 09:47:00,38.5,17.3,30.09,ENE,67,0.0,1.8,42,0.00,,,0.00,WUHU21623XXSP,2013-03-23 14:47:00,
2013-03-23 09:52:00,39.2,17.4,30.09,East,90,0.0,1.8,41,0.00,,,0.00,WUHU21623XXSP,2013-03-23 14:52:00,
2013-03-23 09:57:00,39.6,17.2,30.09,NNE,22,0.0,0.9,40,0.00,,,0.00,WUHU21623XXSP,2013-03-23 14:57:00,
2013-03-23 10:02:00,39.7,17.4,30.09,ENE,67,0.0,0.2,40,0.00,,,0.00,WUHU21623XXSP,2013-03-23 15:02:00,
2013-03-23 10:07:00,40.5,18.0,30.10,ENE,67,1.3,2.9,40,0.00,,,0.00,WUHU21623XXSP,2013-03-23 15:07:00,
2013-03-23 10:12:00,40.6,16.9,30.09,SE,135,0.0,2.9,38,0.00,,,0.00,WUHU21623XXSP,2013-03-23 15:12:00,
2013-03-23 10:17:00,40.6,16.2,30.09,ENE,67,0.0,2.9,37,0.00,,,0.00,WUHU21623XXSP,2013-03-23 15:17:00,
2013-03-23 10:22:00,40.6,14.9,30.09,East,90,1.3,2.2,35,0.00,,,0.00,WUHU21623XXSP,2013-03-23 15:22:00,
2013-03-23 10:27:00,40.5,12.8,30.09,ENE,67,0.0,1.3,32,0.00,,,0.00,WUHU21623XXSP,2013-03-23 15:27:00,
2013-03-23 10:32:00,41.2,13.5,30.09,NNW,337,0.7,1.1,32,0.00,,,0.00,WUHU21623XXSP,2013-03-23 15:32:00,
2013-03-23 10:37:00,41.4,13.0,30.09,ESE,112,1.1,2.5,31,0.00,,,0.00,WUHU21623XXSP,2013-03-23 15:37:00,
2013-03-23 10:42:00,41.5,10.7,30.09,NE,45,0.0,2.5,28,0.00,,,0.00,WUHU21623XXSP,2013-03-23 15:42:00,
2013-03-23 10:47:00,41.9,9.1,30.09,NE,45,0.9,4.0,26,0.00,,,0.00,WUHU21623XXSP,2013-03-23 15:47:00,
2013-03-23 10:52:00,42.1,5.7,30.09,ESE,112,0.7,4.0,22,0.00,,,0.00,WUHU21623XXSP,2013-03-23 15:52:00,
2013-03-23 10:57:00,42.3,2.9,30.09,SE,135,1.3,6.5,19,0.00,,,0.00,WUHU21623XXSP,2013-03-23 15:57:00,
2013-03-23 11:02:00,42.1,2.7,30.09,East,90,0.4,6.5,19,0.00,,,0.00,WUHU21623XXSP,2013-03-23 16:02:00,
2013-03-23 11:07:00,42.4,3.0,30.09,WNW,292,0.0,4.9,19,0.00,,,0.00,WUHU21623XXSP,2013-03-23 16:07:00,
2013-03-23 11:12:00,43.0,3.5,30.09,ENE,67,3.8,3.8,19,0.00,,,0.00,WUHU21623XXSP,2013-03-23 16:12:00,
2013-03-23 11:17:00,43.0,3.5,30.09,NE,45,4.7,4.7,19,0.00,,,0.00,WUHU21623XXSP,2013-03-23 16:17:00,
2013-03-23 11:22:00,43.0,3.5,30.09,NE,45,2.5,4.7,19,0.00,,,0.00,WUHU21623XXSP,2013-03-23 16:22:00,
2013-03-23 11:27:00,43.2,3.6,30.09,East,90,0.0,4.0,19,0.00,,,0.00,WUHU21623XXSP,2013-03-23 16:27:00,
2013-03-23 11:32:00,43.3,3.7,30.09,East,90,0.9,1.8,19,0.00,,,0.00,WUHU21623XXSP,2013-03-23 16:32:00,
2013-03-23 11:37:00,43.7,4.1,30.09,ESE,112,0.0,1.8,19,0.00,,,0.00,WUHU21623XXSP,2013-03-23 16:37:00,
2013-03-23 11:42:00,43.5,3.9,30.09,ENE,67,0.7,1.8,19,0.00,,,0.00,WUHU21623XXSP,2013-03-23 16:42:00,
2013-03-23 11:47:00,44.8,5.0,30.09,NNE,22,1.3,1.8,19,0.00,,,0.00,WUHU21623XXSP,2013-03-23 16:47:00,
2013-03-23 11:52:00,45.1,5.2,30.09,East,90,0.7,4.0,19,0.00,,,0.00,WUHU21623XXSP,2013-03-23 16:52:00,
2013-03-23 11:57:00,45.0,5.1,30.09,East,90,1.6,4.3,19,0.00,,,0.00,WUHU21623XXSP,2013-03-23 16:57:00,
2013-03-23 12:02:00,45.0,5.1,30.09,NNE,22,1.1,6.5,19,0.00,,,0.00,WUHU21623XXSP,2013-03-23 17:02:00,
2013-03-23 12:07:00,45.5,5.6,30.09,NE,45,3.6,6.5,19,0.00,,,0.00,WUHU21623XXSP,2013-03-23 17:07:00,
2013-03-23 12:12:00,45.9,5.9,30.09,NE,45,2.0,3.6,19,0.00,,,0.00,WUHU21623XXSP,2013-03-23 17:12:00,
2013-03-23 12:17:00,46.2,6.1,30.09,ENE,67,0.0,4.3,19,0.00,,,0.00,WUHU21623XXSP,2013-03-23 17:17:00,
2013-03-23 12:22:00,46.0,6.0,30.09,NNE,22,0.9,4.3,19,0.00,,,0.00,WUHU21623XXSP,2013-03-23 17:22:00,
2013-03-23 12:27:00,46.0,6.0,30.09,NE,45,3.4,3.4,19,0.00,,,0.00,WUHU21623XXSP,2013-03-23 17:27:00,
2013-03-23 12:32:00,45.9,5.9,30.09,North,0,0.0,3.4,19,0.00,,,0.00,WUHU21623XXSP,2013-03-23 17:32:00,
2013-03-23 12:37:00,45.3,5.4,30.09,NE,45,1.8,3.4,19,0.00,,,0.00,WUHU21623XXSP,2013-03-23 17:37:00,
2013-03-23 12:42:00,45.3,5.4,30.08,ENE,67,2.0,2.0,19,0.00,,,0.00,WUHU21623XXSP,2013-03-23 17:42:00,
2013-03-23 12:47:00,46.2,6.1,30.08,SE,135,1.1,2.0,19,0.00,,,0.00,WUHU21623XXSP,2013-03-23 17:47:00,
2013-03-23 12:52:00,46.6,6.5,30.09,East,90,1.3,2.5,19,0.00,,,0.00,WUHU21623XXSP,2013-03-23 17:52:00,
2013-03-23 12:58:00,46.8,6.6,30.09,ESE,112,0.9,2.5,19,0.00,,,0.00,WUHU21623XXSP,2013-03-23 17:58:00,
2013-03-23 13:03:00,46.6,6.5,30.08,NE,45,0.7,3.6,19,0.00,,,0.00,WUHU21623XXSP,2013-03-23 18:03:00,
2013-03-23 13:08:00,47.1,6.9,30.08,ENE,67,4.5,4.5,19,0.00,,,0.00,WUHU21623XXSP,2013-03-23 18:08:00,
2013-03-23 13:13:00,47.1,6.9,30.08,ENE,67,0.0,4.5,19,0.00,,,0.00,WUHU21623XXSP,2013-03-23 18:13:00,
2013-03-23 13:18:00,47.1,6.9,30.08,ESE,112,0.0,3.4,19,0.00,,,0.00,WUHU21623XXSP,2013-03-23 18:18:00,
2013-03-23 13:23:00,47.1,6.9,30.08,North,0,1.6,1.8,19,0.00,,,0.00,WUHU21623XXSP,2013-03-23 18:23:00,
2013-03-23 13:28:00,47.1,6.9,30.08,North,0,0.0,5.6,19,0.00,,,0.00,WUHU21623XXSP,2013-03-23 18:28:00,
2013-03-23 13:33:00,46.9,6.7,30.08,North,0,1.6,5.6,19,0.00,,,0.00,WUHU21623XXSP,2013-03-23 18:33:00,
2013-03-23 13:38:00,46.6,6.5,30.08,ENE,67,0.9,1.8,19,0.00,,,0.00,WUHU21623XXSP,2013-03-23 18:38:00,
2013-03-23 13:43:00,46.2,6.1,30.08,NNE,22,1.3,1.8,19,0.00,,,0.00,WUHU21623XXSP,2013-03-23 18:43:00,
2013-03-23 13:48:00,46.0,6.0,30.08,NE,45,5.1,5.1,19,0.00,,,0.00,WUHU21623XXSP,2013-03-23 18:48:00,
2013-03-23 13:53:00,46.4,6.3,30.08,North,0,2.0,5.1,19,0.00,,,0.00,WUHU21623XXSP,2013-03-23 18:53:00,
2013-03-23 13:58:00,46.4,6.3,30.07,NNE,22,2.5,2.5,19,0.00,,,0.00,WUHU21623XXSP,2013-03-23 18:58:00,
2013-03-23 14:03:00,46.4,6.3,30.07,NNE,22,2.0,2.5,19,0.00,,,0.00,WUHU21623XXSP,2013-03-23 19:03:00,
2013-03-23 14:08:00,46.4,6.3,30.07,ENE,67,0.0,2.2,19,0.00,,,0.00,WUHU21623XXSP,2013-03-23 19:08:00,
2013-03-23 14:13:00,47.1,6.9,30.07,NE,45,4.0,4.0,19,0.00,,,0.00,WUHU21623XXSP,2013-03-23 19:13:00,
2013-03-23 14:18:00,47.3,7.0,30.07,ENE,67,0.0,4.0,19,0.00,,,0.00,WUHU21623XXSP,2013-03-23 19:18:00,
2013-03-23 14:23:00,47.8,7.5,30.07,ENE,67,1.3,2.5,19,0.00,,,0.00,WUHU21623XXSP,2013-03-23 19:23:00,
2013-03-23 14:28:00,47.8,7.5,30.07,NNE,22,5.8,5.8,19,0.00,,,0.00,WUHU21623XXSP,2013-03-23 19:28:00,
2013-03-23 14:33:00,47.8,7.5,30.07,NNE,22,1.8,5.8,19,0.00,,,0.00,WUHU21623XXSP,2013-03-23 19:33:00,
2013-03-23 14:38:00,46.6,6.5,30.06,NNE,22,3.4,3.4,19,0.00,,,0.00,WUHU21623XXSP,2013-03-23 19:38:00,
2013-03-23 14:43:00,46.6,6.5,30.06,NW,315,2.9,3.4,19,0.00,,,0.00,WUHU21623XXSP,2013-03-23 19:43:00,
2013-03-23 14:48:00,47.1,6.9,30.06,North,0,0.0,2.9,19,0.00,,,0.00,WUHU21623XXSP,2013-03-23 19:48:00,
2013-03-23 14:53:00,47.7,7.4,30.06,ENE,67,1.6,2.7,19,0.00,,,0.00,WUHU21623XXSP,2013-03-23 19:53:00,
2013-03-23 14:58:00,47.8,7.5,30.06,ENE,67,4.5,4.5,19,0.00,,,0.00,WUHU21623XXSP,2013-03-23 19:58:00,
2013-03-23 15:03:00,47.7,7.4,30.06,ENE,67,0.0,4.5,19,0.00,,,0.00,WUHU21623XXSP,2013-03-23 20:03:00,
2013-03-23 15:08:00,46.8,6.6,30.06,East,90,0.0,1.8,19,0.00,,,0.00,WUHU21623XXSP,2013-03-23 20:08:00,
2013-03-23 15:13:00,46.4,6.3,30.06,East,90,1.6,1.6,19,0.00,,,0.00,WUHU21623XXSP,2013-03-23 20:13:00,
2013-03-23 15:18:00,45.9,5.9,30.05,ENE,67,0.0,1.6,19,0.00,,,0.00,WUHU21623XXSP,2013-03-23 20:18:00,
2013-03-23 15:23:00,45.3,5.4,30.06,North,0,1.3,1.6,19,0.00,,,0.00,WUHU21623XXSP,2013-03-23 20:23:00,
2013-03-23 15:28:00,45.5,5.6,30.05,NE,45,1.3,1.6,19,0.00,,,0.00,WUHU21623XXSP,2013-03-23 20:28:00,
2013-03-23 15:33:00,45.7,5.7,30.05,ENE,67,0.0,3.6,19,0.00,,,0.00,WUHU21623XXSP,2013-03-23 20:33:00,
2013-03-23 15:38:00,45.5,5.6,30.05,NNW,337,1.8,3.6,19,0.00,,,0.00,WUHU21623XXSP,2013-03-23 20:38:00,
2013-03-23 15:43:00,45.5,5.6,30.05,North,0,2.9,3.4,19,0.00,,,0.00,WUHU21623XXSP,2013-03-23 20:43:00,
2013-03-23 15:48:00,45.5,5.6,30.05,NNE,22,6.5,6.5,19,0.00,,,0.00,WUHU21623XXSP,2013-03-23 20:48:00,
2013-03-23 15:53:00,45.5,5.6,30.04,NNE,22,2.9,6.5,19,0.00,,,0.00,WUHU21623XXSP,2013-03-23 20:53:00,
2013-03-23 15:58:00,45.5,5.6,30.04,NE,45,2.0,2.9,19,0.00,,,0.00,WUHU21623XXSP,2013-03-23 20:58:00,
2013-03-23 16:03:00,45.5,5.6,30.04,NE,45,0.9,6.0,19,0.00,,,0.00,WUHU21623XXSP,2013-03-23 21:03:00,
2013-03-23 16:08:00,45.5,5.6,30.03,ENE,67,1.1,6.0,19,0.00,,,0.00,WUHU21623XXSP,2013-03-23 21:08:00,
2013-03-23 16:13:00,45.5,5.6,30.03,NE,45,4.9,4.9,19,0.00,,,0.00,WUHU21623XXSP,2013-03-23 21:13:00,
2013-03-23 16:18:00,45.3,5.4,30.03,NNW,337,1.8,4.9,19,0.00,,,0.00,WUHU21623XXSP,2013-03-23 21:18:00,
2013-03-23 16:23:00,45.1,5.2,30.03,NNE,22,2.7,3.4,19,0.00,,,0.00,WUHU21623XXSP,2013-03-23 21:23:00,
2013-03-23 16:28:00,45.0,5.1,30.03,ENE,67,0.0,5.4,19,0.00,,,0.00,WUHU21623XXSP,2013-03-23 21:28:00,
2013-03-23 16:33:00,44.8,5.0,30.02,NE,45,2.0,5.4,19,0.00,,,0.00,WUHU21623XXSP,2013-03-23 21:33:00,
2013-03-23 16:38:00,44.4,4.6,30.02,NE,45,2.2,2.5,19,0.00,,,0.00,WUHU21623XXSP,2013-03-23 21:38:00,
2013-03-23 16:43:00,44.1,4.4,30.02,NNE,22,3.8,6.0,19,0.00,,,0.00,WUHU21623XXSP,2013-03-23 21:43:00,
2013-03-23 16:48:00,43.2,3.6,30.02,NE,45,2.7,6.0,19,0.00,,,0.00,WUHU21623XXSP,2013-03-23 21:48:00,
2013-03-23 16:53:00,42.6,3.1,30.02,ENE,67,0.0,3.6,19,0.00,,,0.00,WUHU21623XXSP,2013-03-23 21:53:00,
2013-03-23 16:58:00,42.3,2.9,30.02,NNE,22,4.5,4.5,19,0.00,,,0.00,WUHU21623XXSP,2013-03-23 21:58:00,
2013-03-23 17:03:00,41.5,2.2,30.01,NE,45,6.0,6.0,19,0.00,,,0.00,WUHU21623XXSP,2013-03-23 22:03:00,
2013-03-23 17:08:00,41.2,2.0,30.01,NNE,22,2.9,6.0,19,0.00,,,0.00,WUHU21623XXSP,2013-03-23 22:08:00,
2013-03-23 17:13:00,40.5,1.4,30.00,North,0,6.9,7.4,19,0.00,,,0.00,WUHU21623XXSP,2013-03-23 22:13:00,
2013-03-23 17:18:00,40.3,1.2,30.00,NE,45,4.5,7.4,19,0.00,,,0.00,WUHU21623XXSP,2013-03-23 22:18:00,
2013-03-23 17:23:00,40.1,1.1,30.00,NE,45,3.8,4.5,19,0.00,,,0.00,WUHU21623XXSP,2013-03-23 22:23:00,
2013-03-23 17:28:00,39.9,0.9,30.00,ENE,67,3.4,6.7,19,0.00,,,0.00,WUHU21623XXSP,2013-03-23 22:28:00,
2013-03-23 17:33:00,39.7,0.7,30.00,NE,45,6.3,6.7,19,0.00,,,0.00,WUHU21623XXSP,2013-03-23 22:33:00,
2013-03-23 17:38:00,39.7,0.7,30.00,NNE,22,5.8,6.3,19,0.00,,,0.00,WUHU21623XXSP,2013-03-23 22:38:00,
2013-03-23 17:43:00,39.9,0.9,30.01,East,90,0.9,5.8,19,0.00,,,0.00,WUHU21623XXSP,2013-03-23 22:43:00,
2013-03-23 17:48:00,39.9,0.9,30.00,North,0,0.0,4.7,19,0.00,,,0.00,WUHU21623XXSP,2013-03-23 22:48:00,
2013-03-23 17:53:00,40.1,1.1,30.00,NE,45,0.9,2.2,19,0.00,,,0.00,WUHU21623XXSP,2013-03-23 22:53:00,
2013-03-23 17:58:00,40.1,1.1,30.01,NNE,22,6.0,6.0,19,0.00,,,0.00,WUHU21623XXSP,2013-03-23 22:58:00,
2013-03-23 18:03:00,39.9,0.9,30.01,NE,45,5.6,6.0,19,0.00,,,0.00,WUHU21623XXSP,2013-03-23 23:03:00,
2013-03-23 18:08:00,39.7,0.7,30.00,ENE,67,2.7,5.6,19,0.00,,,0.00,WUHU21623XXSP,2013-03-23 23:08:00,
2013-03-23 18:13:00,38.8,1.1,30.00,NNE,22,6.3,6.3,20,0.00,,,0.00,WUHU21623XXSP,2013-03-23 23:13:00,
2013-03-23 18:18:00,38.5,3.5,30.00,NNE,22,0.9,6.3,23,0.00,,,0.00,WUHU21623XXSP,2013-03-23 23:18:00,
2013-03-23 18:23:00,38.1,7.6,30.00,NNE,22,1.3,5.4,28,0.00,,,0.00,WUHU21623XXSP,2013-03-23 23:23:00,
2013-03-23 18:28:00,37.6,9.1,30.00,SE,135,0.0,4.3,31,0.00,,,0.00,WUHU21623XXSP,2013-03-23 23:28:00,
2013-03-23 18:33:00,37.4,10.1,30.00,NE,45,3.8,3.8,32,0.00,,,0.00,WUHU21623XXSP,2013-03-23 23:33:00,
2013-03-23 18:38:00,37.0,10.4,30.00,North,0,2.9,6.9,33,0.00,,,0.00,WUHU21623XXSP,2013-03-23 23:38:00,
2013-03-23 18:43:00,36.5,11.2,30.00,NE,45,0.0,6.9,35,0.00,,,0.00,WUHU21623XXSP,2013-03-23 23:43:00,
2013-03-23 18:48:00,36.5,11.2,30.01,NNE,22,3.6,4.9,35,0.00,,,0.00,WUHU21623XXSP,2013-03-23 23:48:00,
2013-03-23 18:53:00,36.3,11.7,30.01,NNW,337,1.3,3.6,36,0.00,,,0.00,WUHU21623XXSP,2013-03-23 23:53:00,
2013-03-23 18:58:00,36.0,12.7,30.01,NNW,337,2.9,2.9,38,0.00,,,0.00,WUHU21623XXSP,2013-03-23 23:58:00,
2013-03-23 19:03:00,35.8,13.2,30.00,North,0,5.1,5.1,39,0.00,,,0.00,WUHU21623XXSP,2013-03-24 00:03:00,
2013-03-23 19:08:00,35.6,13.6,30.00,North,0,4.0,5.1,40,0.00,,,0.00,WUHU21623XXSP,2013-03-24 00:08:00,
2013-03-23 19:13:00,35.2,13.3,30.00,NNW,337,1.1,4.0,40,0.00,,,0.00,WUHU21623XXSP,2013-03-24 00:13:00,
2013-03-23 19:18:00,35.1,13.7,30.00,North,0,1.1,3.8,41,0.00,,,0.00,WUHU21623XXSP,2013-03-24 00:18:00,
2013-03-23 19:23:00,35.1,13.7,30.00,NE,45,0.2,3.8,41,0.00,,,0.00,WUHU21623XXSP,2013-03-24 00:23:00,
2013-03-23 19:28:00,35.1,14.2,30.00,North,0,2.7,3.8,42,0.00,,,0.00,WUHU21623XXSP,2013-03-24 00:28:00,
2013-03-23 19:33:00,35.1,14.2,30.01,NNW,337,0.0,2.7,42,0.00,,,0.00,WUHU21623XXSP,2013-03-24 00:33:00,
2013-03-23 19:38:00,34.7,13.9,30.01,North,0,2.2,2.2,42,0.00,,,0.00,WUHU21623XXSP,2013-03-24 00:38:00,
2013-03-23 19:43:00,34.7,13.9,30.01,NNE,22,1.1,2.2,42,0.00,,,0.00,WUHU21623XXSP,2013-03-24 00:43:00,
2013-03-23 19:48:00,34.7,13.9,30.01,NNE,22,0.0,2.2,42,0.00,,,0.00,WUHU21623XXSP,2013-03-24 00:48:00,
2013-03-23 19:53:00,34.5,14.2,30.01,North,0,0.0,2.2,43,0.00,,,0.00,WUHU21623XXSP,2013-03-24 00:53:00,
2013-03-23 19:58:00,34.5,14.2,30.01,NNE,22,1.6,1.6,43,0.00,,,0.00,WUHU21623XXSP,2013-03-24 00:58:00,
2013-03-23 20:03:00,34.3,14.0,30.01,NNE,22,1.8,1.8,43,0.00,,,0.00,WUHU21623XXSP,2013-03-24 01:03:00,
2013-03-23 20:08:00,34.3,14.5,30.01,North,0,1.3,2.2,44,0.00,,,0.00,WUHU21623XXSP,2013-03-24 01:08:00,
2013-03-23 20:13:00,34.2,14.4,30.01,NNE,22,0.0,2.5,44,0.00,,,0.00,WUHU21623XXSP,2013-03-24 01:13:00,
2013-03-23 20:18:00,34.2,14.4,30.01,NNE,22,0.0,2.5,44,0.00,,,0.00,WUHU21623XXSP,2013-03-24 01:18:00,
2013-03-23 20:23:00,34.0,14.7,30.01,North,0,0.0,2.0,45,0.00,,,0.00,WUHU21623XXSP,2013-03-24 01:23:00,
2013-03-23 20:28:00,34.0,14.7,30.01,NNE,22,0.7,2.0,45,0.00,,,0.00,WUHU21623XXSP,2013-03-24 01:28:00,
2013-03-23 20:33:00,34.0,14.7,30.01,NNE,22,1.1,1.3,45,0.00,,,0.00,WUHU21623XXSP,2013-03-24 01:33:00,
2013-03-23 20:38:00,34.0,14.7,30.02,NNE,22,0.0,1.1,45,0.00,,,0.00,WUHU21623XXSP,2013-03-24 01:38:00,
2013-03-23 20:43:00,33.8,15.0,30.01,NE,45,0.7,1.1,46,0.00,,,0.00,WUHU21623XXSP,2013-03-24 01:43:00,
2013-03-23 20:48:00,33.6,14.9,30.01,NNE,22,1.3,1.3,46,0.00,,,0.00,WUHU21623XXSP,2013-03-24 01:48:00,
2013-03-23 20:53:00,33.6,14.9,30.02,NNE,22,3.1,3.6,46,0.00,,,0.00,WUHU21623XXSP,2013-03-24 01:53:00,
2013-03-23 20:58:00,33.6,14.9,30.01,NNW,337,0.7,4.0,46,0.00,,,0.00,WUHU21623XXSP,2013-03-24 01:58:00,
2013-03-23 21:03:00,33.4,14.7,30.01,North,0,0.0,4.0,46,0.00,,,0.00,WUHU21623XXSP,2013-03-24 02:03:00,
2013-03-23 21:08:00,33.6,15.4,30.02,NNE,22,3.1,3.1,47,0.00,,,0.00,WUHU21623XXSP,2013-03-24 02:08:00,
2013-03-23 21:13:00,33.4,15.2,30.02,North,0,1.1,3.1,47,0.00,,,0.00,WUHU21623XXSP,2013-03-24 02:13:00,
2013-03-23 21:18:00,33.4,15.2,30.02,NNE,22,1.1,2.0,47,0.00,,,0.00,WUHU21623XXSP,2013-03-24 02:18:00,
2013-03-23 21:23:00,33.4,15.2,30.02,NNE,22,0.9,3.4,47,0.00,,,0.00,WUHU21623XXSP,2013-03-24 02:23:00,
2013-03-23 21:28:00,33.4,15.2,30.01,NNE,22,0.7,3.6,47,0.00,,,0.00,WUHU21623XXSP,2013-03-24 02:28:00,
2013-03-23 21:33:00,33.4,15.2,30.02,NNE,22,0.0,3.6,47,0.00,,,0.00,WUHU21623XXSP,2013-03-24 02:33:00,
2013-03-23 21:38:00,33.4,15.2,30.02,ENE,67,0.0,4.7,47,0.00,,,0.00,WUHU21623XXSP,2013-03-24 02:38:00,
2013-03-23 21:43:00,33.3,15.1,30.02,NE,45,3.1,4.7,47,0.00,,,0.00,WUHU21623XXSP,2013-03-24 02:43:00,
2013-03-23 21:48:00,33.4,15.2,30.02,NNE,22,2.2,3.1,47,0.00,,,0.00,WUHU21623XXSP,2013-03-24 02:48:00,
2013-03-23 21:53:00,33.3,15.1,30.02,North,0,3.6,4.0,47,0.00,,,0.00,WUHU21623XXSP,2013-03-24 02:53:00,
2013-03-23 21:58:00,33.3,15.1,30.02,NNE,22,6.3,6.3,47,0.00,,,0.00,WUHU21623XXSP,2013-03-24 02:58:00,
2013-03-23 22:03:00,33.3,15.1,30.02,NNE,22,6.7,6.7,47,0.00,,,0.00,WUHU21623XXSP,2013-03-24 03:03:00,
2013-03-23 22:08:00,33.1,14.9,30.02,NNE,22,4.5,6.7,47,0.00,,,0.00,WUHU21623XXSP,2013-03-24 03:08:00,
2013-03-23 22:13:00,33.1,15.4,30.01,North,0,2.5,4.5,48,0.00,,,0.00,WUHU21623XXSP,2013-03-24 03:13:00,
2013-03-23 22:18:00,32.9,15.2,30.01,NE,45,1.1,2.5,48,0.00,,,0.00,WUHU21623XXSP,2013-03-24 03:18:00,
2013-03-23 22:23:00,32.9,15.2,30.01,North,0,6.9,6.9,48,0.00,,,0.00,WUHU21623XXSP,2013-03-24 03:23:00,
2013-03-23 22:28:00,32.9,15.2,30.02,North,0,3.6,6.9,48,0.00,,,0.00,WUHU21623XXSP,2013-03-24 03:28:00,
2013-03-23 22:33:00,32.9,15.7,30.01,ENE,67,0.0,3.6,49,0.00,,,0.00,WUHU21623XXSP,2013-03-24 03:33:00,
2013-03-23 22:38:00,32.9,15.7,30.02,NNE,22,0.0,3.6,49,0.00,,,0.00,WUHU21623XXSP,2013-03-24 03:38:00,
2013-03-23 22:43:00,32.7,15.6,30.01,NE,45,3.4,4.5,49,0.00,,,0.00,WUHU21623XXSP,2013-03-24 03:43:00,
2013-03-23 22:48:00,32.7,16.1,30.02,NE,45,3.1,4.5,50,0.00,,,0.00,WUHU21623XXSP,2013-03-24 03:48:00,
2013-03-23 22:53:00,32.7,16.1,30.01,NNE,22,5.8,5.8,50,0.00,,,0.00,WUHU21623XXSP,2013-03-24 03:53:00,
2013-03-23 22:59:00,32.7,16.1,30.01,NE,45,4.5,5.8,50,0.00,,,0.00,WUHU21623XXSP,2013-03-24 03:59:00,
2013-03-23 23:00:00,32.7,16.5,30.01,NE,45,2.7,5.8,51,0.00,,,0.00,WUHU21623XXSP,2013-03-24 04:00:00,
2013-03-23 23:05:00,32.7,16.5,30.01,NE,45,3.1,4.5,51,0.00,,,0.00,WUHU21623XXSP,2013-03-24 04:05:00,
2013-03-23 23:10:00,32.7,16.5,30.02,SW,225,0.0,3.1,51,0.00,,,0.00,WUHU21623XXSP,2013-03-24 04:10:00,
2013-03-23 23:15:00,32.7,17.0,30.02,ENE,67,2.0,2.9,52,0.00,,,0.00,WUHU21623XXSP,2013-03-24 04:15:00,
2013-03-23 23:20:00,32.5,16.8,30.02,NE,45,0.0,2.0,52,0.00,,,0.00,WUHU21623XXSP,2013-03-24 04:20:00,
2013-03-23 23:25:00,32.5,17.2,30.02,NE,45,1.1,2.0,53,0.00,,,0.00,WUHU21623XXSP,2013-03-24 04:25:00,
2013-03-23 23:30:00,32.5,17.2,30.02,East,90,0.7,1.1,53,0.00,,,0.00,WUHU21623XXSP,2013-03-24 04:30:00,
2013-03-23 23:35:00,32.5,17.7,30.02,ENE,67,0.0,1.8,54,0.00,,,0.00,WUHU21623XXSP,2013-03-24 04:35:00,
2013-03-23 23:40:00,32.5,18.1,30.02,NE,45,1.8,2.9,55,0.00,,,0.00,WUHU21623XXSP,2013-03-24 04:40:00,
2013-03-23 23:45:00,32.5,18.1,30.02,ENE,67,0.9,2.9,55,0.00,,,0.00,WUHU21623XXSP,2013-03-24 04:45:00,
2013-03-23 23:50:00,32.5,18.1,30.01,NNW,337,0.9,2.0,55,0.00,,,0.00,WUHU21623XXSP,2013-03-24 04:50:00,
2013-03-23 23:55:00,32.5,18.5,30.02,ENE,67,2.2,2.2,56,0.00,,,0.00,WUHU21623XXSP,2013-03-24 04:55:00,